Location: Geyikbay?r?
(36.8756°N, 30.4583°E)
Time: 00:03:52
(UTC+00:00)

Resurs 1-4 Rocket - Pass Details

Date: 05 August 2024
Orbit: 798 x 813 km, 98.8° (Epoch: 18 September)

Event Time Altitude Azimuth Distance (km) Brightness Sun altitude
Rises 23:16:13 0° 23° (NNE) 3,339 6.4 -33.9°
Reaches altitude 10° 23:18:46 10° 31° (NNE) 2,402 5.4 -33.7°
Enters shadow 23:22:32 33° 72° (ENE) 1,337 3.4 -33.4°
